Weather History for Goteborg Save AFB, Sweden

Change the Weather History Date:

Thursday, June 14, 2012

  Actual Average Record
Temperature  
Mean Temperature 54 °F -  
Max Temperature 57 °F - - ()
Min Temperature 50 °F - - ()
Degree Days  
Heating Degree Days 12    
Growing Degree Days 4 (Base 50)    
Moisture  
Dew Point 45 °F    
Average Humidity 73    
Maximum Humidity 88    
Minimum Humidity 58    
Precipitation  
Precipitation 0.00 in - - ()
Sea Level Pressure  
Sea Level Pressure 29.91 in    
Wind  
Wind Speed 9 mph ()    
Max Wind Speed 16 mph    
Max Gust Speed -    
Visibility 6.2 miles    
Events      
T = Trace of Precipitation, MM = Missing Value Source: Averaged Metar Reports

Daily Weather History Graph

Daily Weather History Graph

Search for Another Location

Airport:

Trip Planner

Search our weather history database for the weather conditions in past years. The results will help you decide how hot, cold, wet, or windy it might be!

Date:

Astronomy

Jun. 14, 2012 Rise Set
Actual Time 4:11 AM CEST 10:14 PM CEST
Civil Twilight 2:58 AM CEST 11:28 PM CEST
Nautical Twilight Sun does not rise Sun does not rise
Astronomical Twilight Sun does not rise Sun does not rise
Moon 1:39 AM CEST (6/14) 4:57 PM CEST (6/14)
Length of Visible Light 20h 29m
Length of Day
18h 03m
Waning Crescent, 23% of the Moon is Illuminated
Jun 14
Waning Crescent
Jun 19
New
Jun 27
First Quarter
Jul 3
Full
Jul 11
Last Quarter

Hourly Weather History & Observations

Time (CEST) Temp. Dew Point Humidity Pressure Visibility Wind Dir Wind Speed Gust Speed Precip Events Conditions
12:20 AM 53.6 °F 46.4 °F 77% 29.83 in 6.2 mi SW 6.9 mph - N/A   Overcast
12:50 AM 53.6 °F 48.2 °F 82% 29.83 in 6.2 mi SW 9.2 mph - N/A   Overcast
1:20 AM 53.6 °F 44.6 °F 72% 29.83 in 6.2 mi SW 6.9 mph - N/A   Overcast
1:50 AM 53.6 °F 46.4 °F 77% 29.83 in 6.2 mi SW 9.2 mph - N/A   Overcast
2:20 AM 53.6 °F 46.4 °F 77% 29.83 in 6.2 mi SW 9.2 mph - N/A   Overcast
2:50 AM 53.6 °F 46.4 °F 77% 29.83 in 6.2 mi SW 9.2 mph - N/A   Overcast
3:20 AM 53.6 °F 46.4 °F 77% 29.83 in 6.2 mi SW 8.1 mph - N/A   Overcast
3:50 AM 53.6 °F 48.2 °F 82% 29.83 in 6.2 mi SW 9.2 mph - N/A   Overcast
4:20 AM 53.6 °F 48.2 °F 82% 29.83 in 6.2 mi SW 8.1 mph - N/A   Overcast
4:50 AM 51.8 °F 48.2 °F 88% 29.83 in 6.2 mi SW 9.2 mph - N/A   Overcast
5:20 AM 51.8 °F 48.2 °F 88% 29.83 in 6.2 mi SW 9.2 mph - N/A   Overcast
5:50 AM 51.8 °F 48.2 °F 88% 29.83 in 6.2 mi SSW 9.2 mph - N/A   Overcast
6:20 AM 53.6 °F 48.2 °F 82% 29.86 in 6.2 mi SW 9.2 mph - N/A   Overcast
6:50 AM 53.6 °F 46.4 °F 77% 29.86 in 6.2 mi SW 9.2 mph - N/A   Overcast
7:20 AM 53.6 °F 48.2 °F 82% 29.86 in 6.2 mi WSW 10.4 mph - N/A   Mostly Cloudy
7:50 AM 53.6 °F 46.4 °F 77% 29.86 in 6.2 mi SW 13.8 mph - N/A   Mostly Cloudy
8:20 AM 53.6 °F 46.4 °F 77% 29.86 in 6.2 mi SW 12.7 mph - N/A   Drizzle
8:50 AM 53.6 °F 46.4 °F 77% 29.89 in 6.2 mi SW 11.5 mph - N/A   Overcast
9:20 AM 53.6 °F 46.4 °F 77% 29.89 in 6.2 mi SW 10.4 mph - N/A   Drizzle
9:50 AM 53.6 °F 46.4 °F 77% 29.89 in 6.2 mi WSW 11.5 mph - N/A   Overcast
10:20 AM 53.6 °F 46.4 °F 77% 29.92 in 6.2 mi SW 10.4 mph - N/A   Overcast
10:50 AM 53.6 °F 46.4 °F 77% 29.92 in 6.2 mi SW 11.5 mph - N/A   Overcast
11:50 AM 53.6 °F 44.6 °F 72% 29.92 in 6.2 mi SW 12.7 mph - N/A   Overcast
12:20 PM 53.6 °F 44.6 °F 72% 29.95 in 6.2 mi SW 13.8 mph - N/A   Overcast
1:50 PM 53.6 °F 44.6 °F 72% 29.95 in 6.2 mi SSW 11.5 mph - N/A   Overcast
2:20 PM 53.6 °F 44.6 °F 72% 29.95 in 6.2 mi SSW 13.8 mph - N/A   Overcast
2:50 PM 53.6 °F 44.6 °F 72% 29.95 in 6.2 mi SSW 13.8 mph - N/A   Overcast
3:20 PM 53.6 °F 42.8 °F 67% 29.95 in 6.2 mi SW 11.5 mph - N/A   Overcast
3:50 PM 55.4 °F 42.8 °F 63% 29.95 in 6.2 mi SW 12.7 mph - N/A   Overcast
4:20 PM 53.6 °F 42.8 °F 67% 29.98 in 6.2 mi SSW 11.5 mph - N/A   Mostly Cloudy
4:50 PM 57.2 °F 42.8 °F 59% 29.95 in 6.2 mi SW 12.7 mph - N/A   Mostly Cloudy
5:20 PM 57.2 °F 42.8 °F 59% 29.98 in 6.2 mi WSW 13.8 mph - N/A   Scattered Clouds
5:50 PM 55.4 °F 42.8 °F 63% 29.98 in 6.2 mi WSW 16.1 mph - N/A   Scattered Clouds
6:20 PM 55.4 °F 42.8 °F 63% 29.98 in 6.2 mi WSW 15.0 mph - N/A   Scattered Clouds
6:50 PM 55.4 °F 41.0 °F 58% 29.98 in 6.2 mi SW 15.0 mph - N/A   Scattered Clouds
7:20 PM 53.6 °F 41.0 °F 62% 29.98 in 6.2 mi SW 10.4 mph - N/A   Scattered Clouds
7:50 PM 53.6 °F 41.0 °F 62% 29.98 in 6.2 mi WSW 13.8 mph - N/A   Scattered Clouds
8:20 PM 53.6 °F 41.0 °F 62% 29.98 in 6.2 mi SW 12.7 mph - N/A   Scattered Clouds
8:50 PM 51.8 °F 41.0 °F 67% 29.98 in 6.2 mi SW 11.5 mph - N/A   Scattered Clouds
9:50 PM 50.0 °F 41.0 °F 71% 30.01 in 6.2 mi SW 9.2 mph - N/A   Scattered Clouds
10:20 PM 50.0 °F 41.0 °F 71% 30.01 in - SW 8.1 mph - N/A   Clear
10:50 PM 50.0 °F 41.0 °F 71% 30.01 in 6.2 mi SW 9.2 mph - N/A   Scattered Clouds
11:20 PM 50.0 °F 41.0 °F 71% 30.01 in 6.2 mi SW 8.1 mph - N/A   Scattered Clouds
11:50 PM 50.0 °F 41.0 °F 71% 30.01 in 6.2 mi SSW 10.4 mph - N/A   Scattered Clouds